Temperature
16 16 17 17 14 11 13 14 14 14 15 15 15 15 14 14 14 15 14 15 15 15 14 14 14 14 14 14 14 14 14 14 14 14 14 14 14 14 15 15 15 15 15 15 15 15 15 15 15
16 16 17 16 12 13 13 14 14 14 15 15 15 14 14 13 14 14 14 14 14 14 14 14 14 14 14 14 14 14 14 14 14 14 14 14 14 14 14 14 14 14 14 14 14 14 15 14 14
16 16 16 11 12 12 14 14 14 14 15 15 14 14 13 13 13 14 14 14 14 14 14 14 14 14 14 14 13 14 14 14 14 14 14 14 14 14 14 14 14 14 14 14 14 14 14 14 14
16 16 15 11 13 12 13 14 13 13 14 14 14 13 13 13 13 14 14 14 14 14 14 14 14 14 14 13 13 13 13 13 13 13 13 13 13 13 14 14 14 14 14 14 14 14 14 14 14
15 15 11 11 12 12 12 13 13 13 13 14 13 12 13 13 13 14 13 13 13 13 13 13 13 13 13 13 13 13 13 13 13 13 13 13 13 13 13 13 13 13 14 14 14 14 14 14 14
15 12 11 11 12 12 12 13 14 13 13 13 13 12 13 13 13 13 13 13 13 13 13 13 13 13 13 13 13 13 13 13 13 13 13 13 13 13 13 13 13 13 13 13 13 13 14 14 13
13 10 11 11 11 12 13 13 13 13 12 13 13 12 12 13 13 13 13 12 13 13 13 13 13 13 12 12 13 13 13 13 13 13 12 12 13 13 13 13 13 13 13 13 13 13 13 13 13
14 9 11 10 11 12 13 13 13 13 13 13 13 12 12 13 13 13 12 12 12 12 12 12 12 12 12 12 12 12 12 12 12 12 12 12 12 12 12 12 12 12 12 12 12 13 13 13 13
13 9 10 11 11 12 12 12 13 13 13 13 13 13 13 13 12 12 12 12 12 12 12 12 12 12 12 12 12 12 12 12 12 12 12 12 12 12 12 12 12 12 12 12 12 12 12 12 12
12 9 10 11 11 12 12 12 12 12 11 12 12 12 12 12 12 12 12 12 12 12 12 12 12 12 11 11 11 11 11 11 12 12 12 12 12 12 12 12 12 12 12 12 12 12 12 12 12
10 9 10 11 12 12 12 12 12 11 10 12 12 12 12 12 12 11 12 12 12 12 11 11 11 11 11 11 11 11 11 11 11 11 11 11 11 11 11 12 11 11 11 11 11 11 11 11 12
10 10 10 11 12 11 11 11 11 11 12 13 13 13 12 12 11 11 11 11 11 11 11 11 11 11 11 11 11 11 11 11 11 11 11 11 11 11 11 11 11 11 11 11 11 11 11 11 11
10 10 10 11 11 11 11 10 11 11 12 12 12 12 12 12 11 11 11 11 11 11 11 11 11 11 11 11 11 11 11 11 11 11 10 10 10 10 10 10 10 10 10 10 10 10 10 10 10
9 9 10 10 11 10 10 10 10 11 12 12 12 12 12 11 11 11 11 11 11 11 11 10 10 10 10 10 10 10 10 10 10 10 10 10 10 10 10 10 10 10 10 10 10 10 10 10 10
10 9 9 9 10 10 10 9 8 11 11 11 11 11 11 11 11 11 11 11 11 10 10 10 10 10 10 10 10 10 10 10 10 10 10 10 10 10 10 10 9 9 9 9 9 9 9 9 9
9 8 8 9 9 9 9 9 9 10 10 10 10 10 10 10 10 10 10 10 10 10 10 10 9 9 9 9 9 9 9 9 9 9 9 9 9 9 9 9 9 9 9 9 9 9 9 9 9
7 7 8 8 8 8 8 8 8 10 9 9 9 10 10 10 10 10 10 10 10 10 9 9 9 9 9 9 9 9 9 9 9 9 9 9 9 9 9 8 8 8 8 8 8 8 8 8 8
7 7 7 7 8 7 7 7 7 9 8 8 9 9 9 9 9 9 9 9 9 9 9 9 9 9 9 8 8 8 8 8 8 8 8 8 8 8 8 8 8 8 8 8 8 8 8 8 8
7 7 7 7 7 7 6 7 7 7 7 7 8 8 8 9 9 9 9 8 8 8 8 9 8 8 8 8 8 8 8 8 8 8 8 8 8 8 7 7 7 7 7 7 7 7 7 7 7
6 6 6 6 7 7 6 6 6 6 6 7 7 7 8 8 8 8 8 8 8 8 8 8 8 8 8 8 8 8 8 7 7 7 7 7 7 7 7 7 7 7 7 7 7 7 6 6 6
6 6 6 6 6 6 6 6 6 6 6 7 7 8 8 8 8 8 8 8 8 8 8 7 7 7 7 7 7 7 7 7 7 7 7 7 7 7 6 6 6 6 6 6 6 6 6 6 6
6 6 6 6 5 5 5 5 6 5 5 5 6 7 7 7 7 7 7 8 8 7 7 7 7 7 7 7 7 7 7 7 7 6 6 6 6 6 6 6 6 6 6 6 6 6 6 5 5
6 6 5 5 5 4 4 4 5 5 5 5 6 6 7 7 7 7 7 7 7 7 7 7 7 6 6 6 6 6 6 6 6 6 6 6 6 6 5 5 5 5 5 5 5 5 5 5 5
5 5 4 3 3 4 4 4 5 4 5 5 5 6 7 7 7 7 7 7 7 7 7 6 6 6 6 6 6 6 6 6 6 5 5 5 5 5 5 5 5 5 5 5 5 5 5 5 5
5 4 3 4 3 4 3 4 5 5 5 5 5 6 6 7 6 6 6 6 6 6 6 6 6 6 6 5 5 5 5 5 5 5 5 5 5 5 5 5 5 4 4 4 4 4 4 4 4
4 4 4 4 3 3 3 3 4 5 4 5 5 6 6 6 6 6 6 6 6 6 6 5 5 5 5 5 5 5 5 5 5 4 4 4 4 5 5 4 4 4 4 4 4 4 4 4 4
4 3 4 3 2 2 3 3 3 4 4 4 4 4 5 5 5 5 5 5 5 5 5 5 5 5 5 4 4 4 4 4 4 4 4 4 4 4 4 4 4 4 4 4 4 4 3 3 3
4 3 2 2 3 3 4 3 4 5 4 4 3 4 5 5 5 5 5 5 5 5 5 5 4 4 4 4 4 4 4 4 4 4 4 4 4 4 4 4 4 4 3 3 3 3 3 3 3
3 2 2 2 2 3 3 4 4 4 4 3 3 4 4 5 5 5 5 5 5 5 4 4 4 4 4 4 4 4 4 4 4 4 4 3 4 3 3 3 3 3 3 3 3 3 3 3 2
2 2 2 2 1 1 2 3 4 3 3 3 3 4 4 5 5 4 4 4 4 4 4 4 4 3 3 3 3 3 3 3 3 3 3 3 3 3 3 3 3 3 3 2 2 2 2 2 2
Wind_Speed
8 5 3 4 5 5 2 3 2 1 0 1 1 3 5 4 3 3 1 1 2 3 4 6 6 7 7 8 9 9 8 8 9 10 10 10 10 10 10 10 10 10 10 11 11 11 10 11 11
3 2 5 5 5 1 4 3 3 3 2 2 3 4 4 2 1 2 0 1 3 4 5 6 7 8 8 8 9 9 8 8 8 9 9 9 9 9 9 9 9 10 10 10 10 10 10 10 10
2 4 5 5 4 6 4 3 3 1 0 2 3 3 2 1 1 1 1 3 5 5 6 6 8 8 8 8 8 8 8 8 8 8 8 8 8 8 8 8 8 9 9 9 9 9 9 9 9
4 5 5 4 3 4 4 2 1 0 2 3 3 3 1 1 1 1 2 5 6 5 6 7 8 8 8 8 8 8 8 8 7 7 7 7 7 7 7 8 8 8 8 8 8 9 9 9 9
4 5 4 1 3 3 3 2 2 2 1 1 3 3 0 3 2 4 5 5 6 4 5 6 8 7 7 7 7 7 7 7 7 7 7 7 7 7 7 7 7 7 7 7 8 8 8 8 8
5 5 3 3 4 3 3 2 1 2 1 2 3 3 1 1 3 4 5 5 4 4 5 5 6 7 7 7 6 7 7 6 7 7 7 7 7 6 6 6 6 6 7 7 7 7 7 7 7
5 4 4 4 3 3 2 1 2 2 2 2 3 4 1 0 2 4 5 5 4 5 5 5 5 6 6 6 6 6 6 6 6 6 6 6 6 6 6 5 5 6 6 7 7 7 8 8 7
5 5 3 3 4 4 1 1 1 2 2 1 3 5 3 3 3 5 5 5 4 4 4 4 5 5 6 5 6 6 6 6 6 6 6 6 6 6 6 5 5 5 6 6 7 8 8 8 8
4 4 4 6 6 4 1 0 1 1 2 0 1 2 2 5 6 5 4 3 2 2 2 3 4 4 5 5 5 5 6 5 6 6 6 6 6 6 6 5 5 5 6 6 7 8 7 7 8
4 4 7 4 4 3 1 1 1 1 1 1 1 1 3 6 7 7 5 4 3 2 1 1 2 3 4 4 4 5 4 5 5 6 6 6 6 6 5 5 5 6 6 6 6 7 7 7 7
3 5 4 2 2 2 1 1 1 3 3 5 5 4 5 6 6 6 6 5 5 4 2 1 2 3 3 3 3 4 4 4 5 5 5 5 6 5 5 5 5 5 5 6 5 6 7 7 6
2 2 3 2 1 1 2 1 1 4 7 5 5 6 6 7 8 8 7 5 4 3 3 2 2 3 3 4 3 3 4 4 3 4 4 5 4 4 4 4 4 4 4 5 5 5 6 6 6
2 2 2 2 1 1 1 3 3 6 6 2 2 5 7 7 7 6 5 4 4 3 3 3 3 3 4 3 3 3 3 3 3 3 4 4 4 3 3 3 3 4 4 4 4 4 4 4 4
2 1 3 3 3 2 3 4 3 7 2 1 3 5 6 6 6 4 4 5 5 4 4 3 3 3 4 3 2 3 3 3 4 3 3 3 4 3 3 2 2 3 3 4 4 3 2 2 3
0 1 4 3 2 2 1 5 6 6 1 3 4 5 5 5 4 5 6 6 5 4 4 3 3 3 4 3 3 3 3 3 3 2 3 3 3 3 3 2 1 2 3 3 4 3 3 2 2
2 1 3 4 1 1 2 9 6 3 4 5 6 5 5 5 5 5 4 4 4 4 4 3 3 3 3 3 3 3 3 3 2 2 2 2 3 3 2 2 1 1 3 3 2 2 2 1 1
2 2 4 5 2 1 4 9 6 3 4 7 7 6 5 5 4 4 3 4 4 4 4 4 3 4 3 3 3 3 3 3 2 2 2 2 2 3 3 1 1 2 2 2 1 1 2 1 1
4 4 4 6 3 2 6 10 9 5 6 8 7 6 5 6 7 4 3 3 3 3 3 3 3 3 3 3 2 1 1 1 2 2 2 2 2 2 2 2 1 2 2 1 1 1 1 1 1
3 4 6 7 4 4 9 12 12 8 6 8 8 7 7 7 5 3 3 3 3 2 3 3 3 2 3 2 2 2 2 1 1 1 1 2 2 2 2 2 2 1 2 2 2 1 1 1 1
3 5 6 6 3 4 7 12 11 9 8 8 9 9 8 6 3 2 2 3 4 4 4 3 3 3 3 3 2 2 2 1 1 1 0 1 1 2 2 2 2 1 2 1 2 2 1 1 1
5 6 6 6 5 3 5 8 7 6 6 7 7 8 7 8 7 5 4 4 4 4 5 4 4 3 3 2 2 1 1 0 1 1 1 1 1 2 2 2 2 2 2 2 3 3 3 2 1
7 5 5 4 3 5 1 6 8 6 6 7 8 7 7 7 6 6 5 4 5 5 4 4 4 3 3 3 3 4 3 2 2 2 2 1 1 2 2 3 3 2 2 3 3 3 3 3 2
5 2 2 3 3 4 3 4 9 3 7 9 8 7 7 7 7 6 6 6 5 4 4 4 4 3 3 3 4 4 3 3 2 1 2 2 1 1 2 2 2 2 2 3 3 3 3 3 4
2 2 2 2 1 5 6 6 8 5 8 7 7 6 6 5 5 5 4 4 3 2 3 3 4 3 3 3 3 4 4 3 3 2 3 2 2 1 1 2 2 2 2 3 3 3 4 4 3
2 3 2 3 2 7 3 6 10 8 7 7 7 7 5 4 4 4 4 4 3 3 3 3 4 3 4 4 4 4 5 5 5 5 4 4 3 2 3 2 2 3 3 3 3 3 4 4 4
4 6 5 5 5 5 3 8 8 6 4 4 4 4 3 3 4 5 6 5 5 4 4 3 4 3 4 4 4 4 4 4 4 5 4 5 4 4 4 3 3 3 3 3 3 3 3 3 4
4 4 4 3 1 3 6 7 8 4 4 3 3 3 3 4 5 5 5 5 5 5 5 5 4 4 4 4 4 4 4 4 4 4 4 4 4 3 3 3 3 3 3 3 3 3 3 3 3
2 5 4 4 3 5 6 5 5 5 6 5 4 5 5 4 4 4 5 5 5 5 4 3 4 3 3 3 3 3 4 4 4 4 4 4 4 3 3 3 3 3 3 3 3 2 3 3 3
2 2 3 3 3 4 5 7 5 5 5 6 6 6 5 5 5 5 4 4 3 3 3 2 2 1 2 2 2 2 2 3 3 4 4 4 3 3 3 4 3 3 3 3 3 3 3 3 3
4 4 5 4 5 4 4 8 4 3 4 4 5 5 4 4 4 4 3 3 3 3 2 2 2 2 2 2 1 1 2 2 2 3 4 3 3 3 3 3 3 3 3 3 3 3 3 3 3
Wind_Direction
345 3 57 57 56 54 227 249 228 262 275 18 85 114 134 138 150 169 227 119 111 122 128 130 121 107 98 100 108 104 100 103 105 103 101 101 99 97 95 92 88 87 84 81 78 80 84 84 85
343 16 53 61 93 140 261 245 217 223 191 110 64 76 82 75 43 102 101 151 115 115 115 123 117 109 100 94 98 100 101 99 101 103 101 101 101 99 97 94 90 86 85 83 79 78 82 84 83
20 47 79 78 127 185 213 219 204 242 129 112 80 56 97 126 120 160 223 135 105 97 105 119 116 111 106 98 93 97 96 92 90 95 100 102 102 99 99 96 93 89 86 85 83 81 83 85 85
64 47 57 83 199 223 221 242 216 92 38 54 109 82 53 23 181 192 120 118 110 96 99 116 117 111 107 102 96 96 101 97 92 89 91 101 104 103 100 97 96 93 91 89 87 84 86 86 84
57 75 68 59 243 254 260 266 173 162 154 84 121 129 108 351 44 109 112 112 115 100 93 107 112 110 107 104 102 98 100 107 100 95 89 90 100 104 100 97 97 97 97 95 92 90 88 89 86
57 70 102 215 245 270 276 258 172 147 138 112 127 131 186 29 98 117 114 110 104 100 85 91 105 106 109 109 104 98 94 96 102 98 91 88 90 99 99 100 101 100 99 96 94 94 91 91 90
107 106 167 199 230 268 261 203 162 160 161 199 160 136 221 48 129 120 110 100 82 85 80 75 84 96 101 106 107 102 98 95 94 96 95 93 92 92 96 97 101 102 100 95 94 94 91 83 81
118 112 153 205 209 243 260 134 151 157 191 168 143 154 205 201 140 110 97 93 85 70 68 74 79 87 91 96 104 99 95 93 91 93 94 91 88 87 91 96 97 100 103 101 97 93 89 85 78
87 94 200 212 201 231 216 119 342 56 118 95 210 190 198 137 128 114 102 88 85 73 57 72 72 78 88 91 98 96 93 90 87 89 93 88 84 84 83 91 92 99 102 102 98 93 87 83 79
95 170 220 216 195 207 218 194 212 84 94 252 300 35 113 139 149 153 162 170 170 173 160 86 93 92 95 98 97 96 93 89 88 87 86 85 81 78 79 85 90 97 99 96 92 89 82 74 71
139 191 222 238 212 190 215 259 205 161 228 224 219 195 157 160 165 176 183 185 190 189 183 178 133 115 108 103 97 96 93 87 85 86 85 87 83 76 72 72 73 76 80 78 77 76 73 74 71
152 243 227 253 264 214 218 221 243 216 233 231 205 177 171 177 186 192 193 197 192 187 192 191 168 142 130 121 111 105 97 90 85 82 84 90 82 73 70 70 72 77 79 75 70 67 69 72 71
194 258 278 281 293 239 223 232 236 251 260 249 164 165 184 197 202 204 199 197 190 192 200 197 175 159 145 132 125 110 113 113 107 98 91 95 96 89 81 76 77 84 88 85 76 71 69 69 67
214 258 293 289 269 242 222 263 235 256 244 168 172 196 203 207 205 199 196 201 200 198 199 196 180 160 146 143 139 135 129 121 113 110 112 109 106 103 102 90 80 87 101 106 98 86 81 67 68
72 340 315 281 245 236 181 283 234 244 192 217 225 224 221 225 215 207 203 203 201 198 194 191 182 154 152 154 150 138 129 122 120 125 128 121 114 114 115 118 103 105 115 110 103 89 79 70 61
52 44 282 281 249 231 173 261 252 216 195 235 244 240 234 234 226 223 214 203 197 186 186 193 182 165 164 159 150 141 129 123 126 135 134 131 127 126 116 121 126 114 113 107 118 118 97 62 44
36 248 250 282 249 202 204 255 265 229 218 241 244 241 237 242 243 237 218 202 193 186 183 187 180 176 175 160 144 136 130 129 132 130 126 136 137 137 126 134 128 118 112 116 143 127 130 114 49
229 231 242 250 268 243 248 258 271 257 236 246 247 241 234 232 237 229 205 194 188 184 178 180 180 176 169 152 134 117 113 123 124 129 139 146 144 141 129 125 117 112 130 145 144 142 116 133 136
207 221 248 260 273 250 251 264 268 261 244 245 249 243 236 237 240 215 192 185 173 175 176 182 178 186 171 171 178 183 203 219 196 140 160 162 156 150 132 129 127 137 169 184 169 152 135 112 103
215 245 260 282 288 253 267 270 264 247 233 230 234 237 233 233 230 209 191 180 181 186 189 189 186 187 193 195 192 187 192 207 212 188 172 192 174 166 162 152 159 164 164 164 172 150 156 152 117
234 224 238 264 313 290 299 288 259 249 237 241 235 231 228 217 213 212 204 197 192 196 198 196 197 191 196 189 165 139 122 116 210 230 243 257 218 183 177 176 167 173 171 191 196 182 169 182 180
246 225 225 254 287 283 275 285 272 253 261 252 247 240 234 226 213 209 206 205 206 210 205 193 194 194 190 173 168 173 190 212 228 226 225 239 220 194 192 180 174 176 181 197 203 185 185 175 189
225 209 212 238 225 278 240 238 279 269 259 257 251 245 239 225 214 211 208 207 213 211 201 197 190 192 185 180 182 183 196 212 218 218 213 225 218 205 198 185 178 187 195 201 204 196 190 189 188
172 63 53 59 106 261 225 211 274 239 234 256 254 253 243 225 216 212 209 200 209 203 191 188 190 196 189 189 196 198 199 199 198 218 220 228 226 222 220 197 191 202 206 203 203 197 198 198 197
105 97 11 332 293 251 208 220 252 248 239 236 248 254 247 222 208 205 204 200 203 196 194 192 192 204 200 200 208 212 207 201 206 215 220 222 222 224 228 217 211 214 216 208 201 194 211 207 202
202 162 173 219 241 274 249 236 254 261 271 262 254 248 240 224 213 210 209 206 206 204 198 193 199 211 207 210 220 220 214 213 218 219 219 221 221 222 216 213 216 220 214 206 201 199 213 210 210
169 196 171 155 257 268 259 276 298 273 297 298 277 260 243 232 228 220 212 210 207 204 203 200 201 208 212 218 222 221 218 215 217 219 218 225 226 220 210 207 207 215 208 200 188 205 214 207 209
168 150 124 161 210 262 279 269 258 276 275 282 276 260 256 241 235 229 217 214 210 206 204 198 200 207 219 220 222 227 223 216 211 208 210 216 217 209 200 206 205 207 207 195 182 202 211 204 220
147 157 156 167 191 206 271 271 235 243 255 259 260 257 249 241 236 231 225 215 206 200 190 194 200 200 214 216 225 226 223 212 203 199 206 212 208 197 200 208 203 204 208 202 193 204 204 205 220
201 195 161 181 236 212 236 269 279 256 282 285 284 281 271 249 241 233 218 202 196 200 198 198 202 210 220 211 205 207 196 193 195 200 206 199 198 202 202 198 197 203 206 205 202 206 210 213 223
Height
1499 1500 1501 1504 1508 1521 1522 1516 1513 1512 1512 1512 1512 1512 1514 1516 1519 1524 1521 1519 1521 1522 1523 1524 1525 1526 1526 1527 1528 1529 1530 1530 1531 1531 1531 1532 1532 1533 1533 1533 1534 1534 1534 1535 1535 1535 1536 1536 1537
1499 1501 1503 1504 1515 1527 1523 1514 1513 1511 1511 1511 1511 1512 1513 1515 1516 1518 1518 1519 1521 1522 1523 1524 1525 1526 1526 1527 1528 1529 1530 1530 1531 1531 1531 1532 1532 1532 1533 1533 1534 1534 1534 1535 1535 1536 1536 1536 1537
1500 1501 1503 1508 1518 1523 1517 1511 1511 1510 1510 1511 1512 1513 1514 1516 1516 1517 1518 1520 1521 1522 1523 1524 1525 1526 1526 1527 1527 1528 1529 1530 1530 1531 1531 1531 1532 1532 1533 1533 1533 1534 1534 1535 1535 1535 1536 1536 1537
1501 1503 1505 1513 1517 1516 1512 1510 1509 1510 1510 1511 1512 1514 1515 1517 1517 1517 1518 1520 1521 1522 1523 1524 1525 1525 1526 1527 1527 1528 1529 1529 1530 1530 1531 1531 1532 1532 1532 1533 1533 1534 1534 1534 1535 1535 1536 1536 1537
1501 1502 1510 1518 1516 1513 1510 1509 1509 1510 1511 1511 1512 1514 1515 1516 1516 1517 1518 1520 1521 1522 1523 1524 1524 1525 1526 1526 1527 1528 1528 1529 1530 1530 1531 1531 1531 1532 1532 1532 1533 1533 1533 1534 1534 1535 1535 1536 1536
1502 1504 1517 1521 1515 1511 1509 1509 1509 1510 1510 1511 1512 1513 1514 1516 1516 1517 1518 1519 1521 1522 1522 1523 1524 1525 1525 1526 1526 1527 1528 1528 1529 1529 1530 1530 1531 1531 1531 1532 1532 1533 1533 1533 1534 1534 1535 1535 1536
1502 1509 1515 1516 1515 1512 1509 1508 1508 1509 1510 1511 1512 1513 1514 1515 1516 1517 1518 1519 1520 1521 1522 1522 1523 1524 1524 1525 1526 1526 1527 1528 1528 1528 1529 1530 1530 1530 1530 1531 1532 1532 1532 1533 1533 1534 1534 1535 1535
1501 1508 1513 1515 1514 1510 1507 1507 1507 1508 1509 1511 1511 1512 1513 1514 1515 1516 1517 1518 1519 1520 1521 1521 1522 1523 1524 1524 1525 1526 1526 1527 1527 1528 1528 1528 1529 1529 1529 1530 1531 1531 1531 1532 1533 1533 1534 1534 1535
1501 1511 1514 1512 1511 1508 1506 1507 1507 1508 1508 1509 1510 1511 1511 1513 1514 1515 1516 1517 1518 1519 1519 1520 1521 1522 1522 1523 1524 1525 1525 1526 1526 1526 1527 1527 1527 1528 1528 1529 1529 1530 1530 1531 1532 1532 1533 1533 1534
1502 1511 1508 1505 1505 1505 1505 1506 1506 1507 1507 1508 1508 1509 1510 1511 1512 1512 1513 1514 1515 1516 1517 1519 1519 1520 1521 1522 1522 1523 1524 1524 1525 1525 1525 1525 1526 1526 1527 1528 1528 1529 1530 1530 1531 1531 1532 1532 1533
1501 1505 1504 1503 1503 1504 1504 1505 1505 1506 1507 1505 1506 1506 1508 1509 1510 1510 1511 1512 1513 1514 1516 1517 1518 1518 1519 1520 1520 1521 1522 1522 1523 1523 1523 1524 1524 1525 1526 1526 1527 1527 1528 1529 1530 1530 1531 1531 1532
1502 1502 1502 1502 1503 1503 1503 1504 1504 1504 1503 1504 1504 1505 1506 1507 1507 1508 1509 1510 1511 1512 1513 1515 1516 1517 1517 1518 1519 1519 1520 1520 1521 1521 1522 1522 1523 1524 1524 1525 1525 1526 1527 1528 1528 1529 1529 1530 1531
1501 1502 1502 1502 1502 1502 1502 1503 1503 1501 1501 1502 1502 1503 1503 1504 1505 1506 1507 1508 1509 1510 1511 1512 1514 1514 1515 1516 1517 1517 1518 1518 1519 1519 1520 1521 1522 1522 1522 1523 1524 1525 1525 1526 1527 1527 1528 1529 1529
1501 1501 1501 1501 1501 1501 1501 1501 1501 1497 1499 1499 1500 1500 1501 1502 1503 1503 1504 1505 1506 1508 1509 1510 1511 1512 1513 1514 1515 1515 1516 1516 1517 1518 1519 1519 1520 1520 1521 1521 1522 1523 1524 1525 1525 1526 1526 1527 1527
1500 1502 1501 1500 1499 1500 1501 1501 1498 1496 1497 1497 1498 1498 1499 1499 1500 1500 1501 1502 1503 1505 1506 1508 1508 1510 1511 1512 1512 1513 1514 1514 1515 1516 1517 1517 1518 1518 1519 1520 1521 1521 1522 1523 1523 1524 1525 1525 1525
1501 1504 1505 1500 1499 1499 1503 1500 1494 1494 1495 1494 1494 1495 1495 1496 1496 1497 1498 1499 1501 1502 1503 1504 1506 1507 1508 1509 1510 1510 1511 1512 1513 1514 1515 1515 1516 1516 1517 1518 1518 1519 1520 1520 1521 1522 1522 1523 1523
1505 1508 1505 1502 1498 1498 1500 1498 1492 1492 1492 1491 1491 1491 1492 1492 1493 1494 1495 1496 1497 1498 1500 1501 1503 1504 1505 1506 1507 1508 1509 1510 1511 1511 1512 1513 1513 1514 1514 1516 1516 1516 1517 1518 1519 1519 1520 1520 1521
1506 1506 1504 1502 1498 1498 1499 1495 1491 1489 1490 1488 1488 1488 1488 1488 1489 1490 1491 1492 1494 1495 1497 1498 1499 1501 1502 1503 1504 1505 1506 1507 1507 1508 1509 1510 1511 1511 1512 1513 1513 1514 1515 1515 1516 1517 1517 1518 1518
1502 1504 1504 1501 1498 1498 1496 1492 1488 1486 1486 1485 1484 1484 1484 1484 1486 1487 1488 1489 1490 1492 1493 1494 1496 1497 1499 1500 1501 1501 1502 1503 1504 1505 1506 1507 1508 1509 1509 1510 1510 1511 1512 1513 1513 1514 1514 1515 1515
1502 1503 1503 1500 1498 1498 1495 1490 1484 1482 1481 1480 1480 1480 1480 1481 1482 1483 1485 1486 1486 1488 1489 1491 1492 1494 1495 1496 1498 1498 1499 1500 1501 1502 1503 1504 1505 1505 1506 1507 1507 1508 1509 1509 1510 1511 1511 1512 1512
1500 1502 1501 1500 1498 1497 1496 1488 1482 1477 1477 1476 1476 1475 1476 1477 1478 1479 1481 1482 1483 1484 1486 1487 1488 1490 1491 1493 1494 1495 1496 1497 1498 1498 1499 1500 1501 1502 1503 1503 1504 1505 1506 1506 1507 1508 1508 1509 1510
1499 1497 1498 1499 1502 1502 1499 1496 1480 1476 1475 1472 1471 1471 1471 1473 1474 1475 1477 1478 1480 1481 1483 1484 1485 1487 1488 1489 1490 1491 1492 1492 1494 1495 1496 1497 1498 1499 1499 1500 1501 1502 1503 1503 1504 1504 1505 1506 1506
1496 1495 1497 1499 1501 1504 1501 1501 1482 1477 1474 1469 1467 1467 1467 1469 1470 1472 1473 1475 1476 1478 1479 1481 1482 1483 1484 1486 1487 1488 1489 1490 1491 1492 1493 1493 1494 1495 1496 1497 1497 1498 1499 1500 1500 1500 1501 1502 1502
1495 1497 1499 1503 1505 1505 1498 1500 1483 1477 1469 1465 1463 1463 1464 1465 1467 1468 1470 1472 1473 1475 1476 1477 1478 1479 1481 1482 1483 1484 1485 1486 1487 1488 1489 1490 1491 1492 1492 1493 1494 1495 1495 1496 1496 1497 1497 1498 1499
1495 1501 1508 1508 1511 1501 1495 1494 1479 1467 1463 1462 1461 1460 1461 1462 1464 1465 1467 1468 1469 1471 1472 1473 1474 1475 1477 1478 1479 1480 1481 1482 1483 1484 1485 1486 1487 1488 1489 1490 1490 1491 1492 1492 1493 1493 1494 1494 1495
1494 1496 1505 1507 1507 1500 1496 1490 1472 1463 1460 1459 1459 1459 1459 1460 1462 1463 1464 1465 1466 1467 1469 1470 1471 1472 1473 1474 1475 1476 1477 1478 1479 1480 1481 1482 1483 1484 1485 1486 1487 1487 1488 1488 1489 1489 1490 1490 1491
1493 1496 1496 1505 1509 1507 1494 1485 1471 1461 1460 1458 1458 1457 1457 1459 1460 1461 1462 1463 1463 1464 1465 1467 1467 1468 1469 1470 1471 1472 1473 1474 1475 1476 1477 1478 1480 1481 1482 1483 1483 1484 1484 1485 1485 1486 1486 1487 1487
1491 1493 1501 1503 1503 1499 1488 1484 1473 1461 1460 1458 1457 1456 1456 1457 1458 1459 1459 1460 1461 1462 1463 1464 1465 1465 1466 1467 1467 1468 1469 1470 1471 1472 1473 1474 1476 1477 1478 1479 1479 1480 1481 1481 1481 1482 1482 1483 1483
1493 1495 1495 1500 1501 1498 1495 1479 1462 1460 1457 1457 1455 1454 1454 1455 1455 1456 1456 1458 1459 1459 1460 1461 1462 1462 1463 1463 1464 1464 1465 1465 1466 1467 1469 1470 1472 1473 1474 1475 1476 1476 1477 1477 1477 1478 1479 1479 1479
1490 1490 1495 1499 1500 1499 1495 1478 1458 1458 1456 1455 1454 1454 1453 1453 1453 1454 1454 1455 1456 1457 1457 1458 1459 1459 1460 1460 1460 1461 1462 1462 1463 1464 1465 1467 1468 1469 1470 1471 1471 1472 1473 1473 1474 1474 1475 1475 1475